Wind_Speed
10 10 10 11 11 12 12 12 12 12 12 12 13 13 13 13 13 13 13 13 12 12 11 11 10 9 9 9 10 10 12 12 11 6 8 12 14 14 9 8 14 18 19 19 20 16 9 6 5 6 5 2 0 0 0 0 1 2 2 2 1 3 3 4 4 3 3 2 2 2 3 3 3 2 2 4 6 6 5 3 3 4 6 9 14 22 25 22
11 11 11 11 11 12 12 12 12 12 12 12 12 12 13 13 13 13 13 13 13 12 12 11 10 9 8 9 10 11 13 13 10 9 15 16 11 12 13 12 16 21 22 21 23 18 10 6 6 6 3 1 1 1 1 1 1 2 2 1 3 4 3 2 4 3 2 0 2 3 2 2 1 4 3 3 5 6 5 3 4 7 7 11 17 23 23 21
12 12 12 12 12 12 12 12 13 12 12 12 12 12 12 13 13 13 13 13 13 12 12 11 11 9 8 8 10 11 12 9 5 9 13 13 14 14 14 16 18 22 23 23 26 19 11 11 11 6 2 0 1 1 1 1 1 2 2 1 4 3 1 1 3 2 0 3 2 3 4 3 2 3 3 5 7 6 4 4 5 6 8 10 13 18 21 20
12 12 12 12 12 13 13 13 13 13 12 12 12 12 12 13 13 13 13 13 13 12 12 11 11 10 8 8 8 10 9 5 3 6 6 7 15 17 17 19 19 22 21 21 22 14 7 12 10 4 2 1 1 1 0 2 2 1 2 3 3 1 1 1 2 1 1 3 1 3 5 5 3 1 3 8 8 3 5 7 7 11 13 13 12 15 18 18
12 12 12 12 13 13 13 13 13 13 13 13 13 13 13 13 13 13 13 13 13 12 11 11 11 9 7 6 7 9 6 3 4 4 4 7 16 21 21 20 20 22 20 17 17 10 7 10 6 2 1 1 0 1 2 3 2 1 3 3 3 3 1 1 2 1 0 3 1 3 3 3 4 0 6 11 8 4 6 8 8 13 15 15 15 15 16 15
12 13 13 13 13 14 14 14 15 14 14 14 13 13 13 13 13 13 14 14 13 12 10 10 10 9 6 4 6 7 1 1 4 3 5 5 19 23 22 21 21 22 19 16 15 9 6 7 4 2 1 0 2 2 3 1 2 0 3 0 3 3 1 2 3 1 1 3 1 1 1 3 3 2 4 9 7 3 4 8 8 11 15 17 16 14 14 13
13 14 14 14 14 14 15 15 16 15 15 15 14 14 14 14 14 14 14 14 13 11 9 9 10 8 5 3 3 4 2 5 6 2 5 3 19 21 21 23 22 23 19 15 13 8 4 5 4 3 2 0 2 4 2 1 3 0 2 0 2 1 1 2 3 2 3 2 3 1 2 3 3 3 1 4 4 1 6 10 10 11 15 17 14 12 12 12
14 15 15 15 15 15 16 16 17 17 16 16 15 15 14 14 14 14 14 13 12 10 8 8 9 6 3 2 1 3 1 8 9 4 4 5 19 21 22 24 23 24 21 16 13 8 5 5 5 3 2 2 2 3 2 2 2 1 3 1 1 1 1 2 2 2 2 2 3 2 3 1 2 2 0 3 2 6 10 12 12 12 13 13 12 12 11 11
15 15 15 15 15 16 17 17 17 17 17 17 16 16 15 15 14 15 14 13 12 8 7 8 7 3 2 1 2 1 4 7 6 7 5 7 19 23 23 24 25 26 21 16 12 9 6 6 6 5 3 3 3 3 3 3 1 3 3 0 1 2 1 2 0 1 2 2 1 2 4 3 1 2 1 3 6 10 11 12 13 13 12 11 11 11 11 11
16 16 16 16 16 17 17 18 18 18 18 17 17 16 15 15 14 15 14 14 11 8 6 6 6 1 3 1 4 1 6 4 5 6 6 9 20 24 22 23 26 26 19 14 13 11 7 6 6 4 2 2 2 2 3 4 2 2 5 3 3 2 2 0 1 1 1 3 2 1 4 4 2 2 1 1 8 12 12 12 12 13 12 11 10 10 11 11
17 16 16 16 17 17 18 18 18 18 18 18 18 17 16 15 15 14 13 13 11 7 5 5 4 2 4 3 5 4 5 4 7 5 6 12 21 25 24 24 27 28 21 12 15 17 8 4 5 3 1 1 1 1 2 4 2 3 6 3 4 3 2 2 2 1 1 2 3 3 3 5 3 1 4 4 9 12 14 12 12 12 11 11 11 10 9 10
17 17 17 17 17 18 18 18 19 18 19 19 18 17 16 16 15 14 13 12 10 7 5 4 3 5 3 2 6 11 5 3 7 5 5 15 21 22 22 24 26 28 24 13 12 18 10 3 2 1 1 1 1 1 2 2 4 3 6 3 3 4 2 3 2 1 1 1 2 4 3 5 2 2 5 7 10 10 13 13 11 11 10 10 10 9 8 10
18 18 17 18 18 18 19 19 19 19 19 19 18 17 16 16 15 14 12 10 9 6 4 3 5 6 3 1 8 12 11 8 8 8 2 15 18 14 14 18 22 25 24 15 6 9 12 8 3 2 1 1 0 2 0 3 4 2 4 3 1 4 3 5 4 2 2 1 2 3 1 5 5 5 4 6 10 10 11 11 11 10 9 9 9 8 8 9
19 19 18 19 19 19 19 19 20 20 20 19 18 17 16 16 15 14 12 9 6 5 3 4 7 5 3 5 9 8 11 13 12 9 4 15 16 9 9 12 17 22 21 15 3 0 6 8 5 2 1 2 2 1 3 4 2 2 2 2 2 1 4 1 4 5 4 1 3 4 2 5 6 6 5 5 10 12 11 10 10 9 9 9 9 8 8 10
20 20 19 19 19 19 20 20 20 20 20 19 18 16 16 16 15 13 8 5 4 3 3 6 6 5 2 7 10 8 9 8 12 13 9 15 16 8 10 13 14 19 17 13 7 1 1 2 3 1 3 3 3 3 3 3 2 2 1 2 2 2 3 2 3 8 5 1 3 5 2 5 6 5 4 4 8 11 11 10 10 10 10 9 9 9 8 9
20 20 20 20 20 20 20 20 20 20 20 19 18 16 15 15 13 8 4 4 3 4 6 5 3 4 1 5 5 5 5 5 9 13 12 16 17 9 10 13 11 13 12 7 6 5 3 2 1 2 2 1 4 4 3 2 3 3 1 2 2 2 3 3 1 5 4 2 1 3 2 3 4 3 2 2 7 9 9 10 11 11 11 11 9 9 8 8
20 20 20 20 20 20 20 20 20 20 20 18 17 14 12 11 6 2 5 5 5 7 6 3 2 2 3 4 3 4 5 7 8 11 15 17 18 10 8 8 5 7 7 4 5 5 3 2 1 1 1 1 3 5 3 1 3 3 1 2 3 2 2 2 1 3 3 3 3 4 3 4 5 2 2 2 7 9 9 10 11 11 10 10 9 9 9 9
21 21 21 20 20 20 20 20 20 20 19 17 15 11 6 3 3 5 8 9 9 6 3 2 2 1 5 5 3 3 3 8 9 10 15 16 16 12 6 5 5 6 4 1 3 3 3 2 0 1 2 2 3 5 4 4 3 3 2 1 3 2 3 4 3 3 5 3 4 4 4 8 9 5 1 2 6 10 11 10 10 10 10 10 10 9 10 10
22 22 21 21 20 20 20 20 19 18 18 16 9 4 6 8 7 6 7 8 6 3 1 3 4 2 2 4 5 5 3 5 9 9 12 14 13 10 5 4 5 6 4 1 1 3 4 1 1 2 2 3 5 6 7 5 6 6 5 4 3 3 4 5 4 5 8 4 4 7 6 8 9 8 5 3 4 9 11 9 8 9 9 9 9 9 9 11
23 22 22 21 20 20 20 19 18 17 16 14 4 4 4 4 3 1 1 2 5 5 2 4 8 3 2 3 2 2 2 2 5 7 11 14 12 9 3 2 4 4 3 4 2 2 4 3 4 6 5 5 7 7 5 4 5 6 4 3 4 4 5 4 3 5 8 4 5 8 6 6 7 7 6 3 4 7 9 10 9 9 9 9 10 10 10 11
25 24 22 21 20 20 18 18 17 15 14 10 2 3 2 2 2 1 2 4 9 11 8 6 10 7 5 4 1 4 2 1 2 3 10 13 12 10 1 1 4 0 2 4 2 1 2 5 9 6 6 6 6 6 5 3 2 3 4 2 4 4 6 5 3 3 6 4 5 5 5 8 8 7 5 3 5 7 9 10 11 11 10 9 10 11 11 10
26 25 23 21 20 18 18 16 14 13 10 5 2 2 2 2 2 2 2 3 8 11 12 9 7 8 8 8 7 2 3 1 4 3 8 11 8 7 3 3 6 3 2 3 1 2 1 6 9 4 6 5 4 4 4 4 2 2 2 1 4 4 4 4 2 1 4 4 4 2 5 8 8 7 5 5 6 6 7 10 10 12 12 10 11 11 11 10
27 25 23 21 19 18 16 13 12 11 4 2 2 2 2 1 5 3 3 2 7 6 8 9 7 8 9 10 9 5 2 3 4 5 8 12 4 5 5 4 6 4 2 4 4 3 3 6 6 6 7 5 3 2 4 2 2 2 3 2 4 4 2 4 4 2 2 2 1 2 4 6 5 5 6 7 7 5 5 8 7 8 11 12 13 12 11 11
28 25 22 19 18 16 13 12 11 5 3 3 5 4 2 5 7 1 4 1 5 4 4 8 7 6 8 7 7 10 4 4 4 4 10 13 5 3 5 5 6 5 4 6 7 6 7 5 1 5 6 6 4 2 4 2 3 3 5 5 6 6 5 4 3 2 2 2 1 3 2 5 3 4 6 4 4 4 5 6 6 6 7 9 10 11 12 12
28 25 21 17 16 14 11 10 4 3 2 5 4 2 2 7 6 3 3 2 3 5 3 3 2 5 9 7 8 10 3 3 6 6 10 14 9 5 3 3 5 6 7 6 6 6 10 6 3 3 2 4 4 3 4 5 3 4 6 10 12 11 5 5 5 4 4 3 3 4 2 5 4 3 7 3 3 6 5 6 9 8 6 7 7 8 10 11
28 24 19 15 14 11 7 4 2 3 4 3 2 3 6 8 4 6 4 4 3 5 2 1 0 4 7 5 6 7 3 3 8 9 10 14 12 7 3 2 1 5 7 4 3 3 5 3 5 6 5 4 4 4 5 7 3 4 5 9 10 8 5 8 7 4 2 3 3 2 4 4 6 4 6 4 5 8 6 7 10 8 8 8 7 7 8 10
27 22 17 13 12 9 3 1 2 1 2 1 0 5 8 8 0 8 3 5 2 2 1 0 0 4 5 5 8 8 2 4 4 7 9 13 11 5 5 5 1 3 4 3 2 3 2 4 5 7 5 5 4 4 5 8 6 4 6 3 5 6 7 10 9 5 3 2 3 3 3 1 5 5 5 3 6 7 7 9 10 9 9 9 9 8 8 9
26 19 14 11 9 7 2 2 3 2 1 1 4 6 7 5 4 7 3 3 1 0 2 2 0 4 2 4 8 6 3 2 4 4 8 15 11 3 5 8 5 5 4 5 5 2 4 5 7 7 5 4 6 5 6 8 5 7 4 1 3 4 5 7 6 3 1 1 3 4 2 1 4 6 4 1 4 6 9 12 12 11 11 11 11 11 10 9
23 17 13 9 6 4 3 3 4 3 0 3 4 6 7 2 4 3 3 1 1 1 1 0 1 2 2 3 5 5 3 1 2 2 4 11 8 3 5 7 7 6 4 6 7 4 2 5 8 8 5 5 7 5 7 8 5 5 2 6 4 4 5 4 5 3 3 2 4 5 5 2 4 6 3 2 3 7 11 12 12 13 13 12 11 11 11 8
19 14 9 6 3 1 2 4 4 2 2 4 4 6 5 2 4 4 2 1 2 2 1 0 0 1 4 5 2 5 4 3 1 2 4 3 2 2 2 2 5 4 1 2 5 4 2 2 4 5 5 7 6 4 6 9 8 3 5 7 6 7 5 4 3 4 4 1 6 7 8 4 2 5 3 3 5 7 8 8 9 11 12 11 11 10 11 9
15 10 5 3 1 3 3 3 3 2 4 5 5 4 2 3 4 4 2 1 2 3 4 2 1 2 4 5 2 4 4 3 1 4 4 3 3 2 2 2 3 3 1 3 5 4 5 3 2 3 5 5 3 1 2 5 6 4 2 4 4 4 4 4 4 4 3 4 6 4 5 4 1 6 4 6 7 5 6 7 9 12 12 11 10 10 10 9
11 6 3 2 1 4 4 3 2 3 5 5 5 3 4 3 2 2 2 3 2 2 4 2 2 2 2 3 4 5 4 1 1 4 4 4 5 5 4 4 4 2 2 5 3 4 5 5 4 3 4 5 4 3 3 2 2 5 4 4 3 2 2 2 2 1 2 5 4 2 4 3 4 8 8 10 10 7 7 7 9 11 12 11 11 10 9 7
8 7 5 4 2 3 2 1 1 4 5 4 3 4 5 4 1 3 2 3 1 3 3 3 7 7 2 3 3 4 4 2 2 2 2 4 5 5 2 2 7 6 2 4 3 2 4 5 3 1 3 4 7 4 3 2 1 5 5 4 4 2 2 1 3 1 3 4 2 2 4 0 4 6 7 10 10 7 8 8 8 9 10 11 11 10 8 7
8 8 7 6 4 1 1 1 2 4 5 3 4 5 4 2 2 2 2 3 3 4 3 4 8 8 2 2 3 4 4 2 2 4 2 3 5 5 3 2 5 5 4 2 2 3 3 5 3 5 3 4 8 7 7 5 3 3 4 5 4 4 4 3 3 2 3 2 3 1 1 2 3 4 5 6 7 6 6 7 6 6 7 7 6 7 8 8
8 10 9 8 7 3 1 0 2 5 6 4 5 5 2 2 3 1 2 3 3 4 6 7 5 4 4 3 3 2 4 3 3 5 3 4 5 5 5 5 5 4 4 3 2 2 3 5 7 5 2 5 6 6 6 6 1 3 3 5 2 4 5 2 3 5 4 1 1 1 3 4 5 6 5 3 5 4 2 4 5 4 5 6 6 6 7 8
8 11 10 9 9 5 2 1 3 6 4 5 6 3 2 3 2 2 3 3 2 4 8 8 4 3 4 4 3 3 1 2 4 4 2 3 3 4 6 5 6 7 6 5 3 1 2 5 6 3 2 5 7 6 6 5 3 1 3 3 4 4 7 4 2 0 3 2 2 1 3 5 4 5 5 4 5 4 2 3 4 4 5 6 6 7 7 8
8 9 9 12 11 8 5 4 5 7 4 6 5 1 3 3 3 4 2 2 3 3 3 4 3 3 4 4 4 6 5 1 2 3 3 2 1 3 5 3 4 10 11 7 3 3 3 4 6 3 5 7 5 6 3 3 6 4 2 5 3 2 4 4 2 2 4 2 4 2 3 5 3 3 4 4 3 2 2 2 2 3 5 6 6 7 8 8
6 7 8 14 13 6 6 7 8 5 4 5 2 1 2 2 3 3 3 3 3 2 2 0 2 2 3 3 5 6 5 3 2 2 3 3 1 1 1 2 2 6 8 6 3 3 4 3 7 4 6 6 1 5 0 3 2 4 4 4 3 2 1 1 2 2 1 2 3 3 4 3 3 4 3 2 4 3 1 1 1 3 5 5 5 6 7 7
4 4 4 13 12 5 7 11 9 4 5 4 1 1 1 3 4 4 4 4 1 1 0 3 2 2 3 3 4 5 5 4 2 1 2 1 1 2 3 2 4 6 4 7 5 2 3 2 6 4 4 2 2 3 2 3 1 1 3 3 2 3 4 2 2 3 3 2 2 3 4 3 6 5 4 6 8 6 4 3 4 5 5 5 6 6 6 7
4 3 2 13 11 4 9 11 6 5 4 2 1 2 1 3 5 6 5 3 2 1 0 2 1 2 2 2 3 2 4 5 4 1 1 2 1 1 4 5 5 8 4 7 7 1 2 2 4 5 3 1 0 2 6 6 4 2 3 3 2 2 2 2 1 1 3 4 2 1 2 5 7 4 6 8 8 6 6 6 6 5 5 5 5 6 6 7
4 4 3 12 9 5 10 8 4 4 2 1 0 2 3 2 4 6 6 2 2 1 1 2 2 2 1 3 4 3 3 4 5 3 2 4 3 1 5 6 5 7 2 4 5 4 2 2 4 4 4 2 5 6 6 7 7 6 6 6 5 4 4 4 1 2 1 3 4 3 2 7 6 3 5 7 6 6 6 6 5 5 5 5 5 5 6 6
4 3 3 11 8 4 6 5 1 2 2 1 3 3 4 3 4 6 7 5 2 2 3 3 2 2 3 3 3 4 4 3 4 4 2 3 2 1 4 6 6 6 2 2 3 4 4 3 3 5 4 6 9 7 4 7 6 4 3 3 4 4 5 6 4 3 1 2 2 3 1 7 6 3 5 6 6 6 5 5 5 4 4 4 4 4 4 4
3 1 3 12 7 2 5 5 3 4 2 3 4 3 3 2 3 5 7 7 4 3 4 3 2 2 4 3 3 4 5 2 3 3 2 3 1 2 5 7 8 5 1 2 4 2 3 3 2 4 4 5 7 6 2 2 4 4 1 2 4 3 4 6 5 4 3 3 2 3 1 6 6 4 4 5 5 4 4 5 5 4 2 2 3 3 3 3
2 2 3 12 10 3 5 3 2 3 3 4 4 5 4 2 4 6 6 6 5 3 3 3 2 2 2 3 4 5 5 2 2 4 3 3 4 5 6 8 8 6 3 2 2 2 2 2 4 3 4 5 6 5 5 4 1 3 2 3 5 4 6 4 2 3 2 3 5 5 3 7 5 4 4 3 1 2 3 4 5 4 3 2 1 1 3 4
2 1 2 11 14 8 4 2 1 1 3 4 4 6 7 4 3 5 4 6 7 4 2 3 4 2 3 4 4 4 5 3 2 4 3 4 6 5 6 11 9 4 5 7 3 2 3 2 5 5 4 4 3 2 3 3 2 2 2 4 5 6 8 5 3 4 2 3 4 5 5 7 6 5 6 4 1 3 2 3 3 3 3 3 2 2 3 4
2 3 2 6 9 7 2 1 2 1 1 3 3 5 7 5 5 5 4 6 8 6 4 4 5 4 4 4 4 2 3 3 3 3 3 6 5 4 8 10 6 5 12 14 9 1 2 0 2 5 7 8 8 6 4 1 2 2 4 6 6 7 8 6 5 4 5 4 3 5 6 5 8 6 6 5 3 4 3 4 4 3 4 3 3 3 3 4
2 2 2 2 3 4 3 3 5 3 1 1 2 4 6 5 5 6 5 5 6 6 4 5 7 6 4 4 3 2 2 2 3 4 5 5 4 7 11 6 2 9 16 14 10 4 4 3 3 4 7 9 9 6 4 2 1 5 5 6 7 7 9 8 5 5 6 6 4 8 6 4 8 8 8 7 6 6 6 6 6 5 5 4 4 4 5 5
3 1 0 0 1 2 2 4 5 5 4 3 3 3 6 7 6 5 4 4 6 7 5 4 8 8 6 5 3 3 4 2 1 3 4 4 5 8 11 5 2 10 14 10 7 4 4 2 3 3 5 7 6 5 5 3 2 2 2 4 7 9 10 10 8 7 9 8 7 7 8 8 10 9 9 9 8 8 7 6 5 5 5 4 5 5 5 4
3 2 1 1 2 2 1 4 5 4 7 6 3 4 6 8 7 4 4 3 4 6 5 4 6 8 7 5 3 2 3 2 1 2 2 2 4 4 6 6 3 7 11 8 6 3 2 2 4 3 3 2 1 2 3 4 1 3 4 2 5 9 12 11 7 6 8 6 4 4 8 10 9 6 5 4 5 4 4 4 5 6 6 5 5 6 5 4
3 1 2 2 3 1 2 4 3 3 6 6 4 3 4 6 6 5 4 3 3 5 5 4 7 8 4 4 3 3 1 1 2 4 3 2 3 0 0 3 4 6 9 6 5 4 2 2 6 2 1 3 5 6 3 3 5 4 4 5 3 4 6 4 3 4 3 3 0 6 4 8 8 2 2 4 5 5 5 5 5 5 5 5 5 5 5 5
3 1 1 3 2 4 3 3 3 3 4 4 3 3 4 5 6 5 2 3 4 3 4 4 6 6 3 4 4 2 3 3 6 9 8 5 4 2 2 2 2 5 7 4 3 5 3 3 6 3 4 3 5 10 10 4 3 4 5 7 6 2 2 3 3 4 6 4 3 6 2 6 6 3 5 4 6 7 7 7 6 4 4 6 6 6 6 6
6 1 3 3 2 4 3 3 4 3 2 3 3 3 3 4 6 4 1 1 3 4 4 4 3 4 3 4 6 6 8 8 10 12 9 8 9 6 5 7 5 2 2 2 2 3 2 3 4 3 3 4 4 8 8 5 5 4 3 3 4 2 1 2 0 3 3 7 6 4 4 5 4 5 7 5 6 7 8 7 6 5 5 5 6 7 6 6
Wind_Direction
9 9 8 7 7 7 5 4 3 1 1 358 358 356 353 352 348 346 343 341 342 340 342 340 336 324 315 316 318 321 320 315 308 281 234 252 244 230 232 191 178 169 165 163 158 154 155 167 163 147 148 162 147 249 232 135 92 65 92 116 203 197 201 184 176 183 166 241 302 356 9 78 118 129 116 86 79 108 109 44 58 51 58 104 126 136 141 144
5 5 2 2 2 2 1 359 358 356 356 354 354 353 350 349 346 344 339 338 337 336 337 336 335 324 312 312 312 317 319 315 304 270 252 256 251 227 218 197 178 171 165 164 166 157 153 176 161 136 113 116 261 341 345 278 110 111 127 131 218 206 218 172 145 180 176 135 317 327 11 58 138 167 142 109 120 128 104 56 75 78 86 107 127 137 141 145
2 1 358 358 357 356 355 353 352 351 350 349 349 348 347 345 343 341 337 335 333 333 332 331 332 325 314 307 309 318 318 322 307 266 264 253 230 216 200 193 184 174 172 173 173 166 164 169 157 136 94 337 259 83 49 299 174 155 134 213 251 213 257 11 110 185 213 50 20 334 344 355 292 179 134 128 144 153 143 151 126 121 133 127 136 142 145 148
359 357 353 353 353 352 349 349 348 345 345 345 344 344 343 342 340 337 335 333 332 330 327 328 328 323 313 307 309 315 321 339 285 249 270 247 207 197 188 188 184 177 180 178 170 165 156 153 148 129 106 279 299 65 77 228 193 152 154 201 244 152 94 353 99 242 29 62 57 348 349 341 313 248 146 134 137 200 207 193 170 154 153 144 148 150 150 153
356 353 351 349 349 348 345 345 343 342 341 341 341 340 339 339 337 335 333 331 330 328 325 324 322 322 313 308 314 316 343 31 283 278 298 241 190 184 183 183 182 179 178 172 166 157 137 142 141 100 113 229 41 54 257 216 151 159 216 208 199 143 129 190 144 250 79 81 5 18 13 316 317 41 154 150 152 221 214 198 177 157 155 152 153 153 154 158
353 350 349 345 346 344 341 341 340 339 338 338 338 337 337 337 335 333 330 329 331 326 322 319 318 324 312 300 320 323 12 189 285 342 349 213 180 178 177 177 178 178 174 167 168 163 137 136 141 144 152 213 177 204 259 211 109 286 277 197 176 147 105 175 142 221 129 90 346 359 254 317 11 73 155 171 179 227 178 157 156 153 151 150 150 154 158 163
351 348 346 344 343 341 338 337 337 335 334 334 334 334 335 335 332 330 328 328 330 325 320 314 314 320 310 289 319 359 85 251 275 356 8 174 175 173 170 175 177 176 172 165 169 170 144 143 171 164 136 272 202 216 250 97 93 141 287 358 176 129 46 171 137 116 122 162 244 289 332 10 75 96 60 210 206 137 128 128 134 142 144 147 151 159 164 166
348 346 345 344 341 339 337 334 334 332 332 331 331 331 332 333 330 327 326 326 328 324 316 309 316 321 298 256 267 4 327 254 263 261 328 175 173 169 167 174 179 179 176 176 175 166 157 163 190 163 135 246 194 187 193 73 54 204 243 279 152 9 12 133 120 126 143 227 261 312 316 315 148 132 343 247 176 116 121 123 130 138 143 153 158 163 166 169
348 345 344 342 339 337 334 332 332 329 329 328 328 328 329 331 328 325 323 323 326 319 312 307 313 314 236 191 105 339 261 244 263 254 259 194 181 177 173 176 181 183 182 189 181 164 175 183 202 191 175 227 178 177 155 100 273 211 173 135 77 4 352 112 147 164 160 237 287 319 298 296 249 122 279 243 139 124 125 128 136 142 151 160 165 168 171 174
349 346 344 342 339 336 332 331 329 327 327 325 325 325 327 329 325 323 320 320 323 309 308 305 301 265 203 177 105 224 257 263 304 264 232 197 187 183 182 182 183 183 183 192 191 185 188 179 191 188 150 217 185 170 140 134 223 177 117 82 60 15 338 62 277 52 114 234 186 247 288 305 338 85 273 221 133 132 127 134 143 148 159 166 169 173 177 180
350 348 345 342 340 336 333 330 328 326 325 323 323 323 325 326 321 320 316 317 319 303 298 295 279 190 174 136 144 213 268 309 323 286 215 196 192 189 191 190 185 185 183 186 203 204 195 160 160 127 87 217 176 160 195 160 129 113 116 73 16 13 337 327 305 328 11 265 176 153 300 315 360 99 225 173 142 139 134 144 153 154 164 169 174 177 182 188
348 346 344 341 339 336 333 329 328 325 323 323 321 322 324 323 318 314 311 313 312 299 286 281 224 176 145 97 214 230 244 333 342 335 203 194 193 190 191 192 189 190 187 183 211 213 210 198 146 93 249 176 97 242 254 136 97 100 112 87 343 1 312 229 237 282 75 294 180 139 341 315 288 236 225 161 146 142 139 149 157 160 168 170 180 182 186 192
345 342 340 338 336 334 331 329 328 325 323 322 320 322 323 318 314 309 307 307 301 293 279 240 182 167 128 222 244 241 244 265 298 323 225 189 189 186 190 192 192 196 196 190 202 217 221 232 228 261 251 100 114 212 119 73 91 94 85 89 26 359 301 211 176 138 134 215 188 140 290 279 256 251 240 163 148 138 140 156 161 164 171 174 185 188 190 191
341 339 336 334 333 331 329 328 326 324 323 321 321 324 322 315 308 304 302 293 283 282 259 165 165 155 118 251 263 271 266 262 258 272 227 183 178 174 187 188 194 203 205 201 185 359 229 224 213 253 258 173 204 165 66 32 52 110 100 53 68 326 294 240 155 151 152 213 142 125 245 266 273 265 238 184 155 145 150 165 166 168 177 180 185 191 196 194
339 336 334 332 330 328 327 325 324 323 323 321 323 325 321 311 304 304 294 263 259 251 166 135 154 141 69 275 272 280 270 255 237 237 216 182 172 166 184 184 195 207 209 208 209 286 333 210 172 195 270 197 146 106 55 8 1 62 144 320 338 224 277 334 168 170 163 226 129 129 221 269 275 262 235 199 164 155 160 167 172 176 181 187 189 193 200 201
338 335 333 330 328 326 324 323 322 322 322 322 326 328 320 309 305 299 246 210 204 164 134 119 145 134 96 279 277 280 254 228 228 224 211 192 185 176 168 172 189 206 209 204 201 225 256 292 181 180 233 183 146 126 64 21 341 354 114 241 270 212 285 331 193 201 170 120 163 172 205 269 271 283 305 215 178 165 167 173 177 181 184 189 193 194 199 203
338 335 331 328 326 323 321 320 320 321 321 323 330 332 320 310 306 236 173 149 139 136 111 91 107 114 258 267 272 276 238 215 222 209 204 204 201 190 149 151 169 185 188 168 180 209 222 246 258 232 55 92 146 115 81 302 277 307 39 234 250 207 259 295 315 261 195 150 203 205 224 248 260 303 13 213 192 179 180 185 184 185 188 190 192 197 198 199
339 334 330 327 323 321 320 317 319 321 319 325 337 342 348 28 90 134 139 124 115 108 44 355 94 74 272 274 260 254 225 209 211 196 197 204 207 203 167 123 120 129 121 127 196 179 173 215 253 308 14 91 137 131 168 225 203 197 192 214 261 247 239 247 263 210 184 204 203 183 233 250 259 276 275 219 197 191 193 191 191 191 190 191 192 196 196 199
339 335 330 326 321 319 318 315 318 318 317 328 347 35 85 89 91 110 129 123 112 117 246 212 172 149 254 261 255 259 275 208 197 189 188 193 196 193 166 104 109 115 110 108 235 174 173 200 26 251 236 167 179 180 192 199 164 173 187 177 207 246 251 231 243 201 173 190 214 193 218 240 250 261 254 222 181 196 204 195 195 198 196 198 196 198 197 199
340 337 331 326 321 317 314 314 317 315 318 330 354 121 113 86 76 77 137 183 216 216 217 185 193 230 308 259 280 302 291 183 186 188 185 187 169 148 129 73 78 73 127 162 214 213 153 164 235 233 196 176 200 207 199 176 143 140 153 187 214 236 265 243 243 221 169 164 234 212 219 242 244 253 249 214 169 194 209 202 200 201 202 204 203 205 202 203
341 338 332 327 321 316 313 313 314 312 319 324 298 148 186 178 101 291 259 249 240 236 253 222 197 233 263 229 352 38 46 18 310 207 181 180 152 137 187 108 111 317 222 163 184 282 118 192 235 226 169 175 196 203 206 201 144 115 148 227 260 240 257 251 230 225 175 179 257 217 219 249 244 246 242 192 186 203 206 203 204 203 204 208 208 211 209 209
341 338 333 328 321 316 315 313 311 311 316 309 215 172 197 144 72 284 227 285 265 231 237 237 212 243 252 249 268 341 50 7 307 293 167 161 149 162 201 119 141 208 236 118 124 295 265 236 241 203 155 163 165 166 179 203 214 205 188 255 279 247 261 291 333 359 172 194 282 220 211 248 251 248 235 193 199 216 206 204 206 201 202 207 209 212 212 211
341 338 334 328 321 317 319 313 309 309 296 196 202 195 173 35 349 311 170 282 287 228 215 221 213 230 241 258 250 190 141 184 239 276 172 153 153 177 156 133 162 185 179 156 170 196 229 252 235 181 162 159 164 165 157 185 249 210 195 228 265 239 207 295 318 28 144 180 271 187 219 263 266 257 250 217 202 214 207 204 213 207 203 208 208 208 207 206
341 338 334 327 321 321 322 313 308 296 203 234 264 225 205 331 342 348 156 233 287 267 218 204 196 207 223 240 194 164 180 193 196 255 178 156 138 153 154 149 158 184 215 187 175 202 234 253 159 140 159 166 190 206 148 172 285 247 208 210 246 242 196 215 225 107 27 325 130 96 360 296 256 227 251 238 194 217 211 197 218 227 219 216 210 209 207 204
340 338 334 327 320 323 326 315 295 167 216 271 261 255 334 328 337 148 150 17 293 284 275 189 186 218 213 197 166 162 167 206 206 213 176 165 156 138 165 164 151 196 215 182 168 224 251 247 130 122 139 146 178 224 175 172 236 285 237 212 232 245 202 157 153 108 41 303 231 111 48 291 298 251 243 224 177 220 211 198 217 221 220 221 210 207 208 206
340 337 333 325 319 325 333 319 165 159 299 261 198 335 330 325 327 162 136 37 308 284 306 138 172 201 193 171 156 141 112 247 217 191 174 175 169 138 151 194 138 201 196 164 169 231 259 207 165 205 226 181 189 243 215 176 166 293 244 203 218 236 179 151 161 141 117 248 262 120 165 260 317 298 250 213 199 224 215 211 222 215 211 215 210 205 202 203
340 335 332 323 316 321 322 196 179 249 309 163 321 321 317 327 228 165 123 29 318 276 129 271 297 167 183 183 158 135 160 253 184 179 182 176 171 133 164 192 150 192 163 122 216 230 169 149 174 206 215 202 213 249 222 161 141 247 250 201 215 219 189 177 171 162 186 204 352 14 147 228 305 281 269 204 198 233 236 226 228 220 214 213 211 210 203 200
340 335 328 319 314 309 260 195 221 223 181 359 315 309 319 336 152 159 77 41 299 358 137 295 154 160 169 164 166 168 227 207 136 200 190 170 172 137 181 203 183 189 163 141 210 238 127 163 190 185 172 196 217 222 183 144 158 252 265 20 263 229 185 175 153 129 44 90 328 301 164 160 272 276 316 92 185 239 240 228 225 221 216 211 210 211 207 201
341 333 324 319 314 299 244 215 213 197 114 351 324 305 314 326 140 104 58 126 276 349 162 281 121 167 67 111 200 251 305 27 146 215 149 163 186 143 180 207 174 182 193 176 213 243 153 186 181 161 158 200 226 218 169 158 203 247 81 67 30 42 78 95 108 100 53 55 247 236 184 172 270 278 327 66 203 237 231 225 221 218 216 210 208 209 207 201
340 331 324 326 322 275 197 216 198 141 21 357 330 305 316 43 85 60 68 189 329 340 339 32 77 70 92 113 226 271 294 326 355 86 83 145 192 69 128 149 113 140 217 258 244 250 282 236 160 154 180 198 214 211 185 194 208 187 72 67 52 42 51 54 61 89 76 313 257 220 188 163 303 276 245 188 219 226 215 218 220 219 218 213 209 207 204 200
343 337 335 343 10 129 121 149 157 72 13 358 342 331 19 51 63 91 152 274 339 331 352 8 353 78 116 139 198 238 250 307 30 122 121 132 129 90 104 110 89 91 331 299 284 299 325 312 226 225 219 187 178 216 212 219 204 167 88 90 78 15 19 30 5 43 102 247 273 238 174 135 240 261 246 230 247 244 208 207 211 213 213 212 211 208 203 198
359 11 16 11 115 147 127 125 140 5 358 356 1 36 76 46 24 145 247 317 360 319 329 323 287 300 221 195 195 194 190 232 198 143 140 145 162 172 163 171 166 127 274 246 266 327 308 257 241 261 241 184 181 258 306 344 142 139 117 103 102 328 18 29 324 13 193 242 270 176 136 122 240 253 263 260 260 249 224 217 212 209 205 204 206 205 201 192
26 43 41 34 82 158 159 159 284 344 353 358 24 54 77 76 231 227 282 329 339 283 298 291 297 302 255 177 206 193 164 201 217 139 125 132 158 196 214 192 171 150 182 213 214 316 296 283 259 234 269 201 177 207 266 306 113 139 145 136 145 144 90 291 273 267 251 273 310 163 156 248 278 265 259 261 264 244 227 226 215 206 202 202 202 197 190 185
41 51 52 50 52 94 162 219 290 331 348 18 65 62 71 107 242 270 322 295 269 288 310 307 306 318 25 158 228 178 145 218 183 125 116 119 139 202 235 245 187 147 117 157 186 182 219 290 234 186 243 194 177 195 199 184 167 176 161 135 148 160 156 212 221 198 228 267 352 7 173 194 229 255 249 256 277 266 234 224 205 196 197 188 183 182 180 184
58 60 60 55 46 46 156 208 330 342 355 44 70 67 97 214 260 317 277 265 287 316 318 315 318 356 6 326 281 182 157 214 171 126 137 161 162 193 199 209 202 153 128 169 214 170 181 263 248 230 236 155 172 211 176 141 185 239 138 110 178 192 161 173 190 177 172 150 18 299 233 213 217 262 280 299 315 317 242 194 170 172 175 151 153 175 183 188
74 61 54 43 36 34 32 41 8 356 10 73 69 68 177 226 234 183 232 266 315 320 325 331 1 37 347 329 331 338 31 150 164 148 171 184 190 201 196 210 199 176 167 174 206 170 154 260 271 284 252 189 184 190 162 152 188 232 120 168 230 180 134 123 185 172 86 138 266 273 264 297 316 288 300 4 360 358 42 134 149 159 154 149 167 178 184 191
85 67 51 29 27 39 48 40 12 358 32 84 79 165 222 238 203 192 244 297 297 318 8 353 347 16 351 336 333 338 358 23 179 175 183 191 245 215 210 243 197 190 194 181 198 202 163 261 277 210 227 247 199 154 161 180 153 125 184 208 203 103 98 107 139 17 48 194 274 322 262 292 329 293 314 357 346 333 21 52 116 138 143 160 184 186 188 193
102 88 52 17 12 31 39 10 349 353 63 77 53 259 238 251 224 212 264 310 310 354 46 248 270 10 26 1 326 327 348 336 248 176 166 188 251 264 209 270 225 215 215 189 214 237 163 257 286 215 210 270 33 115 345 300 154 148 188 173 130 140 181 89 141 143 107 205 278 313 294 270 220 233 280 280 241 231 304 347 177 170 168 177 191 194 195 192
85 99 40 1 0 15 4 346 341 16 73 61 2 261 246 264 265 255 265 293 302 63 68 223 230 26 44 30 334 321 352 348 289 207 143 163 241 4 35 11 327 313 264 182 193 246 144 203 283 260 206 246 38 110 200 265 300 92 122 125 106 142 164 169 150 154 157 172 245 305 324 279 229 221 193 210 228 211 183 210 216 203 189 185 191 193 194 191
48 87 358 349 357 350 335 339 359 49 65 65 188 219 287 280 277 282 281 265 209 166 213 227 333 26 24 30 23 341 353 355 338 315 24 41 94 28 28 30 340 314 273 186 187 160 73 197 254 292 289 238 221 198 188 180 166 141 143 170 182 97 124 152 93 87 131 143 176 229 309 271 251 213 187 212 229 212 191 196 212 217 195 187 196 194 193 196
37 77 330 345 353 328 339 360 40 52 60 56 317 258 297 308 293 308 323 327 190 242 74 113 61 29 7 23 31 2 356 3 357 9 36 25 40 23 14 26 334 308 294 178 189 180 162 194 217 283 311 249 241 239 196 174 176 178 181 187 178 144 121 124 200 290 95 125 163 158 231 269 260 199 207 229 220 210 210 195 196 217 205 196 206 202 199 204
53 90 327 351 349 319 9 41 9 27 88 7 329 273 281 315 319 325 339 359 31 15 39 77 59 30 37 30 12 5 28 25 348 11 49 2 15 252 331 349 319 293 211 182 243 204 162 127 188 247 262 240 253 265 217 188 180 156 166 175 149 132 127 137 189 234 111 100 128 120 192 270 263 212 226 249 236 214 201 182 183 213 219 208 210 206 195 200
70 139 340 1 351 275 57 53 326 4 41 288 302 277 273 322 356 348 353 5 13 14 26 33 19 52 53 30 14 15 27 31 358 13 337 311 327 257 304 333 335 334 40 355 322 254 158 126 182 264 301 295 288 305 322 168 140 117 121 161 148 153 142 146 172 171 134 149 133 96 265 271 274 265 251 253 249 216 170 162 170 191 228 226 207 189 143 138
81 204 323 12 25 83 78 65 302 345 328 307 341 352 342 27 33 10 7 7 357 357 24 9 351 50 67 46 44 18 6 29 33 14 350 311 315 295 310 340 348 6 31 332 291 248 235 185 178 242 308 324 328 341 346 336 172 170 202 183 167 131 97 106 130 106 122 193 151 127 232 258 271 299 317 323 271 180 169 167 165 169 194 219 206 100 93 106
56 138 281 10 34 60 84 112 169 278 321 335 6 8 357 358 15 14 24 23 6 1 28 349 327 8 61 68 64 16 10 33 8 1 5 327 313 296 329 342 338 352 347 324 302 232 241 195 166 185 215 239 260 257 256 262 225 202 176 174 171 138 129 143 130 109 180 218 149 145 217 263 293 311 319 335 102 160 193 172 150 143 157 174 151 100 87 95
71 60 307 345 21 46 67 57 56 70 324 7 29 18 5 347 330 341 20 42 17 4 28 10 342 5 38 53 70 50 21 9 338 353 355 335 324 301 320 326 316 342 351 350 357 82 157 77 176 180 191 206 212 225 240 188 142 214 196 174 172 153 142 126 104 150 189 166 177 215 208 251 294 289 280 279 191 180 201 172 163 161 148 145 136 118 93 79
91 61 8 327 351 20 17 8 26 17 302 65 62 10 2 356 337 338 2 36 15 4 32 26 12 21 14 12 50 61 18 349 343 352 339 328 314 302 312 309 298 355 1 2 2 36 96 13 320 199 209 224 220 228 268 320 221 219 202 178 174 157 139 132 151 191 158 131 234 249 190 202 267 255 237 238 204 194 206 190 183 179 158 140 129 118 98 85
73 109 41 315 344 21 6 344 348 347 356 54 75 21 12 12 12 2 344 354 11 16 31 19 11 16 6 3 44 27 360 15 17 346 323 320 322 321 327 327 349 7 11 7 1 45 97 330 290 225 239 248 233 228 251 272 257 224 214 191 173 159 158 168 187 186 153 161 235 234 172 198 245 245 231 220 196 191 195 182 163 146 139 136 129 120 108 109
61 76 315 5 79 161 261 314 318 348 19 31 32 24 22 15 12 352 320 340 15 15 29 29 350 345 351 7 60 62 4 5 352 317 270 303 334 341 340 326 327 16 15 3 355 35 100 293 284 252 254 283 282 242 227 220 189 27 346 293 173 171 183 185 183 172 166 191 229 168 178 224 244 242 236 211 175 163 144 129 127 137 145 146 136 130 129 145
59 64 318 20 47 355 296 333 346 20 26 24 22 14 17 20 9 335 333 38 41 356 16 32 337 322 327 356 40 104 141 218 251 265 250 310 331 329 329 292 288 345 2 8 345 340 34 320 298 292 56 356 1 24 42 165 146 93 12 353 47 151 189 199 166 144 170 249 15 111 166 255 260 217 134 133 129 120 125 140 144 147 150 144 142 147 149 160
34 226 47 88 42 358 347 345 5 44 29 14 9 353 360 11 357 329 332 62 80 35 3 345 320 308 301 350 5 353 284 268 243 246 246 253 261 218 170 229 255 337 344 3 334 325 19 343 308 13 52 323 342 19 14 5 71 62 22 9 22 73 184 210 195 170 177 184 101 92 143 262 256 160 114 125 137 141 160 165 145 139 154 155 166 177 171 175
17 355 38 90 90 10 360 341 2 50 52 348 332 337 349 344 338 345 360 357 66 60 357 316 310 310 315 346 341 318 304 295 272 260 253 244 242 226 221 238 229 232 297 324 304 293 23 14 325 24 36 292 324 7 359 7 30 2 322 3 4 310 230 149 317 300 210 155 133 156 225 261 238 158 136 145 160 167 182 178 151 149 168 179 193 190 177 181
Height
797 796 796 795 794 793 792 791 790 789 788 787 786 785 784 783 782 781 781 779 779 778 778 777 776 775 774 773 773 772 771 770 769 769 767 760 758 760 761 763 764 765 768 769 771 773 775 777 777 778 779 781 783 783 783 782 783 789 799 808 810 809 805 799 800 799 797 795 793 792 791 792 793 789 784 784 789 793 795 795 793 792 790 791 793 794 798 801
797 796 795 795 794 793 792 791 790 789 788 787 786 785 783 783 782 781 780 779 779 778 777 776 776 775 774 773 772 771 771 769 768 767 761 756 757 759 760 762 763 765 766 768 770 771 775 777 777 778 781 785 785 784 785 784 785 793 802 808 805 802 797 791 793 794 793 794 793 792 792 791 791 790 785 791 799 796 799 801 797 798 796 794 795 797 800 801
797 796 795 794 793 792 792 791 790 789 787 787 786 784 783 782 781 780 779 779 778 777 777 776 775 774 774 773 771 772 770 768 768 762 754 753 755 757 759 761 762 764 765 766 768 770 773 774 776 778 783 788 786 786 788 786 787 792 799 805 800 795 794 791 791 791 791 792 793 793 790 790 789 786 786 793 801 799 802 803 800 803 801 798 797 797 800 802
797 796 795 794 793 792 791 790 789 788 787 786 785 784 783 781 781 780 778 778 777 777 776 775 775 773 774 772 772 772 768 771 767 755 751 751 753 755 758 760 762 765 766 767 769 772 772 773 776 778 785 791 788 787 790 788 788 792 795 801 796 792 795 793 790 790 790 791 793 793 791 790 787 785 787 793 802 804 801 796 794 798 798 798 798 798 800 802
796 796 795 794 793 792 791 790 789 787 787 785 784 783 782 781 780 779 778 777 776 776 774 774 773 773 773 771 773 770 771 780 767 750 751 751 751 754 756 759 762 764 766 769 771 772 773 774 777 781 787 791 791 791 791 785 786 792 792 793 793 792 795 792 789 790 790 790 792 793 793 790 786 785 788 791 799 800 792 788 789 790 792 794 795 798 800 802
796 795 794 793 792 791 790 789 788 787 786 784 784 782 781 780 779 778 777 776 775 775 774 773 772 772 772 771 773 769 775 781 760 749 752 749 751 754 756 760 762 765 767 769 771 772 774 776 780 786 789 791 793 793 790 785 785 794 793 789 791 790 792 790 789 790 789 791 792 792 791 788 788 789 788 788 791 788 781 782 786 788 789 791 794 797 799 802
795 794 794 793 791 790 789 788 787 786 785 784 783 781 780 779 778 777 775 775 774 773 773 772 771 772 771 771 772 770 774 770 753 752 753 750 754 754 757 760 761 765 766 768 770 772 775 778 783 786 789 792 792 790 789 785 786 795 795 790 790 789 790 790 789 790 790 792 791 789 790 789 791 791 789 789 786 782 779 781 785 789 790 792 795 797 799 801
795 794 793 792 790 789 788 787 786 785 784 782 781 780 779 778 777 776 774 774 773 772 772 771 771 771 771 771 771 774 774 762 751 754 753 753 755 755 758 760 762 765 765 768 769 771 775 780 783 784 790 791 787 788 788 788 791 794 795 791 790 790 789 789 788 790 791 791 789 789 791 790 790 790 790 789 785 781 781 783 786 790 792 794 796 798 799 801
794 793 792 791 789 788 787 786 785 784 782 781 780 779 778 777 776 774 773 773 771 771 770 769 770 769 771 770 771 777 769 754 751 753 753 754 755 756 757 758 761 763 764 767 768 771 775 779 780 779 787 787 784 787 786 792 796 791 791 792 791 792 790 789 789 789 791 790 790 791 791 789 787 788 790 787 784 783 783 786 788 791 795 797 797 798 799 801
793 792 791 790 788 787 786 785 783 782 781 780 779 778 777 776 774 773 772 771 771 770 769 769 769 768 770 768 774 778 760 749 753 752 752 753 754 756 757 757 760 762 764 766 767 769 770 773 774 772 779 783 783 786 786 791 792 786 789 791 792 793 790 790 790 789 791 789 789 793 792 789 786 789 794 788 783 783 785 790 790 793 797 797 798 798 799 801
792 791 790 788 787 786 784 783 782 780 780 778 777 776 775 774 773 772 771 770 770 769 768 768 767 768 769 768 775 773 754 749 752 749 751 752 752 754 754 756 758 760 762 764 766 765 767 769 768 771 780 783 783 787 786 783 785 785 788 793 794 793 792 791 790 789 791 791 789 791 792 789 787 792 793 787 783 783 787 793 793 795 797 798 799 799 799 800
792 790 789 787 786 785 783 782 780 779 778 777 776 775 774 773 771 771 770 769 768 768 768 767 768 768 768 770 770 761 750 750 750 749 751 750 752 753 753 756 756 758 760 762 764 764 768 769 768 776 781 780 786 792 786 779 783 787 788 796 798 795 796 793 791 791 793 793 787 789 798 796 792 793 788 783 784 785 789 793 795 796 798 798 799 799 800 800
790 789 788 786 785 783 782 780 779 778 776 775 774 773 773 771 770 769 768 768 767 767 767 766 767 766 769 770 759 750 750 750 750 750 750 750 753 754 755 757 758 759 760 762 765 765 769 769 770 776 776 780 789 786 780 779 786 791 791 798 802 803 801 792 791 794 794 794 786 791 810 806 794 790 786 784 784 788 793 795 796 797 798 799 799 800 801 800
789 788 786 785 783 782 780 779 777 776 775 774 773 772 771 769 768 767 767 767 766 767 766 766 767 767 770 765 750 747 750 749 750 750 750 751 752 755 756 757 759 760 761 763 766 767 768 768 770 774 774 779 782 778 783 789 791 795 798 801 806 812 806 792 792 795 796 795 785 795 816 808 793 790 787 785 784 788 795 796 796 798 798 799 799 800 801 799
788 786 784 783 782 780 778 777 775 774 773 772 771 770 769 767 766 765 766 766 765 766 765 766 767 767 771 763 748 747 748 747 748 748 750 751 751 754 755 757 759 760 762 764 766 767 768 768 772 778 778 775 778 786 795 798 796 798 806 812 813 813 806 795 793 793 796 796 788 797 814 807 793 789 786 785 785 788 794 796 796 797 798 798 798 799 800 799
786 785 783 781 780 778 777 775 773 772 771 770 769 769 767 765 764 764 765 764 765 766 766 768 767 768 773 762 748 746 747 746 746 747 750 750 751 753 754 757 759 760 763 764 766 767 767 770 773 777 779 779 785 794 801 807 807 803 808 816 814 812 810 801 796 793 792 796 795 798 807 804 794 788 787 786 787 789 793 795 795 796 796 797 797 798 799 800
785 783 781 780 778 776 775 773 772 770 769 768 768 766 765 764 763 763 764 765 766 766 766 767 767 769 766 753 748 749 745 744 744 745 747 749 751 752 754 757 758 760 762 764 767 768 769 773 775 777 780 786 789 794 808 820 817 810 811 814 811 809 811 806 800 795 792 796 799 799 802 800 792 788 788 787 787 790 793 794 794 794 795 795 795 797 798 799
783 781 779 778 776 774 773 771 770 768 767 767 766 765 764 763 763 764 764 765 766 767 769 768 768 773 764 750 750 749 743 742 743 744 746 748 750 752 754 756 758 760 765 769 769 770 774 776 779 784 786 790 791 795 810 816 810 809 812 813 811 807 808 807 801 795 795 798 800 803 805 799 791 788 788 787 787 790 791 791 791 791 792 793 794 795 796 797
781 779 777 776 774 772 771 769 768 767 766 765 765 765 764 764 764 765 765 766 766 766 767 765 764 767 762 751 747 744 741 742 742 743 745 747 749 752 754 756 758 762 772 778 776 774 777 780 785 791 792 793 793 792 797 799 796 800 803 806 808 806 804 802 797 792 793 800 802 803 803 798 793 790 788 787 786 789 789 789 791 791 791 791 792 792 793 794
780 777 775 773 771 770 768 767 766 765 764 764 764 764 765 766 766 767 767 765 762 756 755 756 755 755 754 749 744 742 742 742 742 743 744 746 748 753 756 758 762 768 775 781 780 774 775 787 792 789 790 789 788 787 787 789 790 795 800 803 804 806 804 796 793 790 789 799 802 798 799 797 793 789 787 786 787 789 790 790 791 791 790 790 790 790 790 790
777 775 773 771 769 767 766 765 764 763 763 762 762 763 764 765 767 768 766 761 754 749 750 751 750 751 748 745 743 742 745 746 744 742 744 745 746 756 762 762 770 778 777 778 779 773 777 790 789 782 783 781 781 783 785 788 791 794 799 802 804 805 801 792 791 791 788 796 798 795 800 798 791 789 786 786 788 788 788 789 790 789 789 788 787 788 787 786
775 773 770 768 766 765 764 763 762 761 761 761 761 761 760 760 763 763 762 762 753 746 748 748 749 749 743 743 743 743 749 753 750 744 743 745 749 759 764 766 775 781 777 777 782 784 788 790 782 777 778 778 780 781 784 789 791 795 798 802 804 801 797 793 793 794 792 796 798 796 801 798 790 787 786 785 786 785 783 784 785 785 787 787 786 785 785 785
773 770 768 766 763 763 762 761 760 759 759 759 760 759 758 759 759 757 760 764 755 744 745 747 748 748 745 744 742 744 752 756 755 748 742 746 752 757 762 769 776 778 779 782 786 794 795 785 776 775 775 778 783 782 784 789 791 794 796 801 801 796 797 798 797 798 794 795 798 798 801 796 790 787 784 782 782 780 780 780 781 782 783 782 781 780 781 783
770 767 766 763 761 761 760 759 758 758 758 758 758 757 757 757 757 757 759 763 758 745 740 740 741 743 743 740 738 744 751 751 751 748 740 745 754 756 761 767 774 779 780 780 784 790 788 776 770 774 776 778 783 784 787 791 794 793 792 796 795 791 794 796 797 799 798 798 796 798 804 795 787 790 784 779 781 781 779 780 781 780 780 778 778 777 778 778
767 765 763 760 759 758 758 758 756 757 757 757 757 755 756 756 756 756 758 764 763 748 739 738 739 738 734 735 738 740 747 748 744 741 737 740 749 756 761 763 770 780 780 779 784 787 780 770 769 775 778 779 783 786 787 790 795 794 786 784 784 783 788 793 796 799 806 808 795 797 812 801 786 789 786 780 783 782 780 780 779 778 778 778 778 777 776 776
764 762 760 758 758 756 757 756 755 757 756 755 755 754 755 755 755 755 760 773 770 750 742 743 743 738 732 736 737 738 752 750 736 734 735 737 740 748 762 765 766 775 776 777 782 782 775 767 768 775 778 780 784 786 783 784 795 798 781 771 775 780 785 792 794 795 805 809 795 795 810 807 791 782 782 783 784 782 780 780 777 775 776 776 776 775 774 774
762 759 757 757 755 755 756 754 756 756 755 754 754 754 754 753 754 753 762 784 776 749 743 746 742 737 733 735 734 741 758 748 733 735 733 736 738 741 760 768 767 770 768 775 786 779 769 769 772 774 777 783 786 786 780 778 793 793 771 766 774 779 783 788 790 793 797 799 799 798 801 809 803 785 782 786 785 784 783 780 776 773 773 773 773 772 771 772
759 756 755 754 753 754 754 754 755 754 753 754 752 753 753 752 754 754 771 794 774 742 742 743 737 732 731 734 734 740 746 738 741 743 729 733 740 743 759 765 764 768 762 773 789 775 764 771 774 773 779 785 781 777 773 775 787 779 765 769 773 774 781 784 790 796 796 798 807 805 800 813 811 787 784 789 787 788 783 777 775 771 770 769 768 769 767 768
756 754 753 752 752 752 752 753 753 752 752 752 751 752 751 751 753 759 781 791 763 739 741 739 735 736 736 740 741 740 737 735 743 741 730 736 739 741 756 758 758 767 762 766 777 770 763 765 765 769 778 779 772 768 767 772 778 769 766 773 774 778 782 786 795 795 797 806 809 803 800 811 808 785 784 792 788 784 776 770 770 766 765 765 764 765 764 765
753 752 751 751 751 751 751 752 751 751 751 750 751 750 748 752 760 777 795 784 758 746 741 738 741 742 743 749 750 745 743 741 739 737 737 741 740 740 748 750 754 765 766 765 768 766 761 757 758 764 767 765 762 764 764 764 767 766 770 776 781 786 784 789 795 791 806 817 803 796 798 804 806 787 779 783 773 767 766 765 766 763 762 762 761 762 761 763
752 751 750 750 750 750 751 751 750 751 751 750 751 748 751 760 771 792 795 769 756 754 744 743 746 744 746 753 754 749 747 745 739 742 746 746 748 749 752 756 761 769 775 773 770 767 764 763 762 758 754 756 759 764 765 762 763 768 774 778 786 794 793 798 800 799 818 820 800 799 800 804 812 789 769 768 761 758 761 760 761 760 761 761 760 759 758 760
751 750 750 750 751 750 750 751 750 751 750 750 750 749 760 775 784 792 781 760 762 763 752 751 749 745 749 750 751 749 748 748 743 744 749 751 756 755 756 763 766 778 788 783 777 774 768 764 762 756 752 752 761 770 771 767 767 771 776 781 794 807 809 813 818 819 822 812 801 805 801 804 808 781 761 761 756 756 757 754 754 755 756 757 757 757 756 758
752 751 751 750 751 751 751 751 751 751 750 749 751 754 768 788 792 785 775 767 768 761 751 752 747 745 750 750 750 747 747 749 745 746 748 750 758 758 757 758 758 770 783 781 781 783 777 766 759 760 756 749 756 771 776 773 771 772 776 782 795 810 819 825 831 829 817 805 803 803 799 803 797 771 757 756 751 750 750 748 749 748 750 752 752 753 755 756
752 752 752 751 751 752 752 752 751 751 751 750 755 763 778 793 789 777 775 771 763 754 751 754 750 747 748 749 747 743 747 752 745 747 751 753 762 765 761 759 757 760 769 778 782 784 788 779 761 759 757 748 751 759 763 766 768 770 770 775 785 794 804 816 819 815 810 807 807 804 800 798 787 766 754 751 749 748 746 745 745 745 747 748 750 753 754 755
753 753 752 752 752 753 752 753 752 751 752 752 760 775 788 792 785 779 777 768 761 759 755 752 751 751 750 747 744 739 742 750 746 747 754 757 761 763 760 759 758 758 765 778 780 777 789 782 755 748 749 746 749 748 747 758 769 771 768 774 781 775 778 796 805 801 803 806 807 806 796 783 771 757 748 750 750 747 746 745 744 746 746 748 751 753 754 754
754 753 754 754 754 754 753 754 754 752 753 757 769 783 787 783 779 777 771 763 763 764 760 757 753 756 756 750 747 742 737 742 747 750 755 757 756 757 756 753 751 753 757 768 775 776 785 778 752 747 748 743 745 743 742 755 767 773 773 773 772 763 764 786 804 802 802 805 807 805 792 776 769 758 747 750 750 747 749 747 745 747 747 749 751 752 753 753
754 754 755 756 755 756 755 755 754 754 754 762 776 784 781 774 770 768 763 760 761 761 766 771 762 760 765 760 755 750 743 743 747 750 756 759 757 754 753 749 746 747 746 752 763 765 771 772 754 748 751 742 737 740 742 744 752 766 773 764 761 765 766 776 796 806 811 812 807 804 797 787 784 772 752 749 750 748 750 748 747 750 749 750 751 750 751 750
754 755 757 758 758 758 757 756 756 755 757 767 779 782 778 772 766 763 760 758 760 761 768 775 766 760 767 770 766 756 751 753 752 753 757 760 757 752 752 750 744 744 741 743 755 756 762 773 760 746 751 746 738 745 753 748 745 752 757 753 759 776 779 778 792 803 811 818 810 803 803 794 786 775 756 751 749 746 748 749 748 749 750 751 751 750 750 750
754 757 762 762 760 759 759 758 756 756 763 776 784 781 776 772 764 759 758 757 760 764 768 770 765 762 765 770 771 763 759 760 757 755 758 760 759 753 752 753 750 747 743 743 753 754 758 773 768 750 747 748 744 751 760 758 752 749 751 754 759 768 774 777 784 788 796 814 815 805 802 787 771 764 755 748 745 742 746 747 745 747 749 749 750 749 749 750
755 761 767 763 760 761 759 757 758 763 771 780 784 780 775 771 764 756 755 756 758 760 764 766 765 767 767 766 769 768 765 765 761 759 759 758 760 757 752 754 755 751 743 742 749 752 756 770 773 756 747 752 753 751 752 754 757 758 760 764 764 765 770 773 780 783 784 800 811 810 803 777 755 755 752 742 741 742 743 741 741 745 747 748 748 747 748 748
757 766 770 763 761 762 759 761 767 773 777 780 782 779 774 770 765 759 754 754 756 755 757 762 765 768 768 767 769 769 768 769 767 766 765 762 764 764 755 752 756 754 748 748 749 751 755 764 770 763 756 757 751 742 741 743 748 752 755 758 759 762 770 778 790 790 781 787 798 804 801 772 747 750 750 741 740 740 741 741 739 742 745 746 747 745 746 747
762 772 772 764 763 763 762 770 777 779 780 780 780 778 772 768 766 764 758 755 757 756 755 760 765 767 769 769 770 769 771 774 773 771 770 768 767 765 757 752 753 752 749 751 747 741 744 755 765 766 760 754 746 739 741 742 740 743 747 751 754 756 760 773 787 786 783 791 793 796 797 769 744 748 749 744 742 738 740 742 740 742 743 744 745 744 745 746
769 774 769 765 764 762 767 778 782 782 783 780 776 774 771 769 769 767 764 762 762 760 760 764 765 767 770 770 769 770 773 775 776 772 770 770 765 759 755 752 752 750 748 752 749 739 742 755 764 765 758 748 740 737 739 739 741 745 748 748 750 751 751 757 768 770 779 791 789 795 800 769 743 746 745 743 744 740 741 742 741 743 743 742 743 743 745 747
775 775 770 767 764 763 774 787 789 788 787 781 778 775 770 769 771 771 770 770 767 765 767 768 767 768 770 771 773 775 775 776 777 773 771 772 765 755 752 752 752 752 751 754 751 744 749 757 763 772 775 768 758 753 748 744 742 745 748 746 744 746 750 757 762 764 775 785 781 787 793 765 742 745 743 741 745 742 742 742 741 742 743 742 744 743 745 747
776 776 774 772 767 768 780 790 790 791 791 787 784 782 779 775 772 772 773 773 770 769 771 771 768 767 769 772 778 780 778 780 781 776 774 775 766 754 752 753 753 752 750 748 743 743 751 755 757 770 786 790 781 769 757 749 744 743 745 744 743 745 749 754 763 767 775 786 782 777 776 758 742 743 741 741 746 744 742 743 742 743 744 744 745 746 747 748
778 781 783 779 774 777 784 788 790 793 792 792 790 788 789 786 778 772 772 775 774 772 774 774 770 769 771 775 782 786 784 784 784 781 781 780 771 760 754 752 752 750 746 742 737 740 749 752 752 758 767 771 765 754 747 745 744 742 742 742 743 745 746 750 762 767 769 783 784 769 762 755 745 742 741 742 746 745 743 743 743 743 744 745 747 748 748 750
784 793 798 792 786 788 789 789 794 795 791 792 795 794 796 795 788 779 775 776 779 776 777 778 776 779 782 781 783 788 788 788 787 785 785 783 776 766 755 750 752 750 745 742 738 741 751 755 754 754 753 751 748 745 745 745 742 739 739 740 742 745 747 750 757 759 760 775 777 761 757 760 749 738 737 740 744 744 743 742 742 743 745 746 748 749 750 752
790 799 804 801 799 800 799 796 797 798 792 791 795 798 800 799 795 792 786 780 781 781 782 786 786 786 787 785 786 791 791 790 790 788 787 785 780 773 761 752 752 750 747 747 744 747 759 761 755 753 750 746 746 744 742 743 742 740 739 739 742 746 747 746 749 751 752 759 759 751 754 756 743 732 733 736 739 739 739 740 741 742 745 747 748 751 753 754
796 801 804 802 803 805 805 802 800 799 796 794 796 800 803 802 800 798 792 787 789 788 789 794 795 791 789 786 787 794 795 793 794 791 787 785 784 782 775 764 757 752 752 754 751 751 760 760 755 754 749 743 744 744 743 743 741 740 742 742 742 744 744 741 745 749 748 747 748 750 753 746 735 733 734 734 737 738 738 741 742 742 745 747 748 752 754 755
803 806 806 803 804 805 805 803 801 800 799 800 802 802 803 805 804 800 794 794 799 797 794 798 799 792 791 790 789 794 795 793 795 792 785 785 785 783 782 776 767 760 759 761 759 756 759 760 757 753 747 742 743 743 743 744 742 742 746 746 744 745 746 745 746 750 751 750 750 754 757 746 735 735 735 735 737 738 740 743 743 744 746 747 749 752 755 756
807 809 808 805 806 807 807 806 805 804 804 807 808 805 804 805 805 802 797 794 798 801 798 799 798 792 790 790 790 791 789 789 792 787 781 783 782 778 777 775 771 769 767 767 766 761 761 764 760 752 749 748 746 746 745 746 746 746 747 747 746 747 748 747 745 745 746 748 752 757 756 743 734 734 736 736 737 738 740 743 744 747 748 747 748 751 753 755
809 809 809 808 808 811 812 810 808 807 809 812 811 807 807 807 804 802 800 795 794 796 796 796 796 794 792 791 789 786 785 784 782 778 775 776 774 772 772 770 769 773 773 771 769 765 764 766 764 761 759 752 750 753 751 750 757 758 752 748 747 746 745 744 744 744 742 743 749 752 745 737 734 735 735 738 740 739 739 740 743 746 748 748 747 748 751 752